GOMX-4A (43197 NORAD) Tracking and Keplerian Element Data

This shows tracking and keplerian element data for the satellite.

Feedback or suggestion? Click here.




ElementValue
Catalog43197
NameGOMX-4A
Epoch Orbit20305
Epoch Day270.22066153
Epoch Year2021
RAAN43.646
Inclination97.4989
Eccentricity0.0016836
Argument of Perigee263.0728
Mean Anonmoly216.9518
Mean Motion15.25768929
Decay Rate2.489E-05
L11 43197U 18015F 21270.22066153 .00002489 00000-0 10009-3 0 9992
L22 43197 97.4989 43.6460 0016836 263.0728 216.9518 15.25768929203053

Live tracking and technical data element details for GOMX-4A (NORAD 43197). GOMX-4A can be tracked NOW for your location showing map with azimuth and elevation plus other details from your city location.

Track the satellite on the map from your city or location and see movement details for azimuth, elevation, latitude, longitude, range, height, and movement on the map or in text.







IsCatalogInMostPopularTable: catalog: 43197, numindb: 546
Update: records affected: 1



GetName: 43197 GOMX-4A

Hit Count: updated at: Tue, 28 Sep 2021 16:43:45 GMT